| time (UTC) | temp F | wind direction | speed knots | gust knots | rain 1hr in | rain 24hr in | rain mn in | humidity % | barometer mb |
| 20260903091539 | 49 | 242 | 1.7 | 3.5 | 0.00 | 0.07 | 0.00 | 73 | 1006.9 |
| 20260903090038 | 50 | 242 | 0.0 | 2.6 | 0.00 | 0.07 | 0.00 | 73 | 1007.0 |
| 20260903084544 | 50 | 244 | 2.6 | 7.0 | 0.00 | 0.07 | 0.00 | 73 | 1006.8 |
| 20260903083033 | 49 | 212 | 4.3 | 6.1 | 0.00 | 0.07 | 0.00 | 77 | 1006.8 |
| 20260903081535 | 48 | 198 | 3.5 | 4.3 | 0.00 | 0.07 | 0.00 | 79 | 1006.8 |
| 20260903080039 | 48 | 188 | 7.0 | 10.4 | 0.00 | 0.07 | 0.00 | 78 | 1006.8 |
| 20260903074536 | 48 | 217 | 6.1 | 8.7 | 0.00 | 0.07 | 0.00 | 79 | 1006.8 |
| 20260903073037 | 49 | 175 | 5.2 | 9.6 | 0.00 | 0.07 | 0.00 | 76 | 1006.9 |
| 20260903071534 | 49 | 205 | 7.0 | 10.4 | 0.00 | 0.07 | 0.00 | 78 | 1006.8 |
| 20260903070035 | 52 | 232 | 6.1 | 9.6 | 0.00 | 0.07 | 0.00 | 71 | 1006.8 |
| 20260903064542 | 52 | 232 | 6.1 | 8.7 | 0.00 | 0.07 | 0.00 | 73 | 1006.6 |
| 20260903063044 | 50 | 234 | 4.3 | 8.7 | 0.00 | 0.07 | 0.00 | 77 | 1006.8 |
| 20260903061537 | 51 | 207 | 6.1 | 7.8 | 0.00 | 0.07 | 0.00 | 78 | 1006.6 |
| 20260903060042 | 51 | 202 | 4.3 | 7.8 | 0.00 | 0.07 | 0.00 | 78 | 1006.9 |
| 20260903054537 | 52 | 202 | 6.1 | 12.2 | 0.00 | 0.07 | 0.07 | 77 | 1007.1 |
| 20260903053037 | 52 | 184 | 8.7 | 13.9 | 0.00 | 0.07 | 0.07 | 78 | 1007.1 |
| 20260903051536 | 51 | 208 | 6.1 | 8.7 | 0.00 | 0.07 | 0.07 | 82 | 1007.3 |
| 20260903050044 | 50 | 221 | 6.1 | 13.0 | 0.00 | 0.07 | 0.07 | 81 | 1007.3 |
| 20260903044544 | 51 | 227 | 7.0 | 9.6 | 0.00 | 0.07 | 0.07 | 80 | 1007.5 |
| 20260903043036 | 52 | 230 | 7.8 | 10.4 | 0.00 | 0.07 | 0.07 | 76 | 1007.4 |
| 20260903041542 | 54 | 222 | 7.0 | 12.2 | 0.00 | 0.07 | 0.07 | 73 | 1007.2 |
| 20260903040038 | 53 | 229 | 6.1 | 10.4 | 0.00 | 0.07 | 0.07 | 76 | 1007.6 |
| 20260903034538 | 54 | 238 | 6.1 | 12.2 | 0.00 | 0.07 | 0.07 | 74 | 1007.5 |
| 20260903033036 | 53 | 244 | 8.7 | 13.0 | 0.00 | 0.07 | 0.07 | 74 | 1007.3 |
| 20260903031538 | 55 | 240 | 8.7 | 14.8 | 0.00 | 0.07 | 0.07 | 72 | 1007.1 |
| 20260903030035 | 55 | 201 | 7.8 | 15.6 | 0.00 | 0.07 | 0.07 | 73 | 1007.3 |
| 20260903024535 | 55 | 288 | 11.3 | 16.5 | 0.00 | 0.07 | 0.07 | 73 | 1007.0 |
| 20260903023034 | 56 | 270 | 11.3 | 18.2 | 0.00 | 0.07 | 0.07 | 73 | 1006.5 |
| 20260903021536 | 57 | 246 | 13.0 | 20.0 | 0.00 | 0.07 | 0.07 | 73 | 1006.8 |
| 20260903020057 | 57 | 200 | 9.6 | 12.2 | 0.00 | 0.07 | 0.07 | 77 | 1006.8 |
| 20260903014537 | 60 | 227 | 5.2 | 8.7 | 0.00 | 0.07 | 0.07 | 70 | 1006.4 |
| 20260903013035 | 61 | 185 | 5.2 | 7.0 | 0.00 | 0.07 | 0.07 | 70 | 1007.0 |
| 20260903011538 | 62 | 171 | 3.5 | 6.1 | 0.00 | 0.07 | 0.07 | 64 | 1007.2 |
| 20260903010035 | 60 | 169 | 5.2 | 7.0 | 0.01 | 0.07 | 0.07 | 68 | 1007.2 |
| 20260903004537 | 59 | 269 | 3.5 | 7.8 | 0.02 | 0.07 | 0.07 | 72 | 1006.8 |
| 20260903003034 | 59 | 328 | 5.2 | 11.3 | 0.04 | 0.07 | 0.07 | 74 | 1006.6 |
| 20260903001552 | 59 | 318 | 1.7 | 6.1 | 0.04 | 0.07 | 0.07 | 70 | 1007.6 |
| 20260903000041 | 59 | 285 | 6.1 | 15.6 | 0.03 | 0.06 | 0.06 | 71 | 1008.1 |
| 20260902234539 | 59 | 216 | 17.4 | 26.1 | 0.05 | 0.05 | 0.05 | 68 | 1008.9 |
| 20260902233036 | 59 | 230 | 27.8 | 38.2 | 0.03 | 0.03 | 0.03 | 70 | 1008.2 |
| 20260902231540 | 59 | 206 | 22.6 | 33.9 | 0.03 | 0.03 | 0.03 | 70 | 1007.9 |
| 20260902230037 | 58 | 240 | 26.1 | 52.1 | 0.03 | 0.03 | 0.03 | 73 | 1007.1 |
| 20260902224534 | 76 | 223 | 20.9 | 35.6 | 0.00 | 0.00 | 0.00 | 32 | 1004.6 |
| 20260902223036 | 81 | 171 | 7.0 | 14.8 | 0.00 | 0.00 | 0.00 | 30 | 1003.2 |
| 20260902221551 | 82 | 200 | 8.7 | 17.4 | 0.00 | 0.00 | 0.00 | 29 | 1003.2 |
| 20260902220037 | 82 | 161 | 9.6 | 15.6 | 0.00 | 0.00 | 0.00 | 28 | 1003.2 |
| 20260902214535 | 83 | 205 | 15.6 | 25.2 | 0.00 | 0.00 | 0.00 | 29 | 1003.5 |
| 20260902213036 | 82 | 172 | 9.6 | 22.6 | 0.00 | 0.00 | 0.00 | 31 | 1003.5 |
| 20260902211536 | 82 | 148 | 7.0 | 16.5 | 0.00 | 0.00 | 0.00 | 32 | 1003.7 |
| 20260902210036 | 80 | 167 | 8.7 | 16.5 | 0.00 | 0.00 | 0.00 | 32 | 1004.2 |
| 20260902204543 | 80 | 146 | 10.4 | 15.6 | 0.00 | 0.00 | 0.00 | 32 | 1004.8 |
| 20260902203036 | 78 | 149 | 8.7 | 17.4 | 0.00 | 0.00 | 0.00 | 34 | 1005.0 |
| 20260902201540 | 78 | 151 | 11.3 | 18.2 | 0.00 | 0.00 | 0.00 | 34 | 1005.3 |
| 20260902200037 | 77 | 179 | 9.6 | 17.4 | 0.00 | 0.00 | 0.00 | 37 | 1005.4 |
| 20260902194549 | 77 | 190 | 7.8 | 13.9 | 0.00 | 0.00 | 0.00 | 38 | 1005.4 |
| 20260902193037 | 76 | 158 | 8.7 | 13.0 | 0.00 | 0.00 | 0.00 | 38 | 1005.5 |
| 20260902191546 | 76 | 209 | 8.7 | 16.5 | 0.00 | 0.00 | 0.00 | 38 | 1005.7 |
| 20260902190036 | 76 | 160 | 10.4 | 17.4 | 0.00 | 0.00 | 0.00 | 37 | 1006.0 |
| 20260902184535 | 75 | 192 | 9.6 | 17.4 | 0.00 | 0.00 | 0.00 | 40 | 1006.1 |
| 20260902183045 | 75 | 166 | 11.3 | 17.4 | 0.00 | 0.00 | 0.00 | 40 | 1006.4 |
| 20260902181533 | 75 | 215 | 7.8 | 18.2 | 0.00 | 0.00 | 0.00 | 41 | 1006.4 |
| 20260902180037 | 74 | 175 | 11.3 | 18.2 | 0.00 | 0.00 | 0.00 | 43 | 1006.6 |
| 20260902174535 | 73 | 190 | 9.6 | 17.4 | 0.00 | 0.00 | 0.00 | 43 | 1006.8 |
| 20260902173050 | 73 | 193 | 12.2 | 18.2 | 0.00 | 0.00 | 0.00 | 44 | 1006.9 |
| 20260902171534 | 73 | 214 | 10.4 | 16.5 | 0.00 | 0.00 | 0.00 | 43 | 1006.9 |
| 20260902170038 | 72 | 175 | 8.7 | 13.9 | 0.00 | 0.00 | 0.00 | 46 | 1006.9 |
| 20260902164541 | 71 | 194 | 11.3 | 16.5 | 0.00 | 0.00 | 0.00 | 46 | 1006.9 |
| 20260902163034 | 71 | 229 | 10.4 | 15.6 | 0.00 | 0.00 | 0.00 | 47 | 1006.8 |
| 20260902161536 | 70 | 214 | 8.7 | 13.0 | 0.00 | 0.00 | 0.00 | 48 | 1006.8 |
| 20260902160042 | 68 | 228 | 7.0 | 13.9 | 0.00 | 0.00 | 0.00 | 50 | 1007.1 |
| 20260902154547 | 69 | 238 | 10.4 | 15.6 | 0.00 | 0.00 | 0.00 | 49 | 1007.3 |
| 20260902153037 | 69 | 236 | 12.2 | 18.2 | 0.00 | 0.00 | 0.00 | 50 | 1007.3 |
| 20260902151538 | 66 | 236 | 9.6 | 12.2 | 0.00 | 0.00 | 0.00 | 53 | 1007.6 |
| 20260902150038 | 65 | 259 | 4.3 | 8.7 | 0.00 | 0.00 | 0.00 | 53 | 1007.6 |
| 20260902144534 | 64 | 230 | 5.2 | 10.4 | 0.00 | 0.00 | 0.00 | 53 | 1007.9 |
| 20260902143037 | 62 | 248 | 1.7 | 3.5 | 0.00 | 0.00 | 0.00 | 56 | 1008.0 |
| 20260902141538 | 61 | 249 | 1.7 | 3.5 | 0.00 | 0.00 | 0.00 | 57 | 1008.1 |
| 20260902140039 | 60 | 230 | 2.6 | 5.2 | 0.00 | 0.00 | 0.00 | 58 | 1008.1 |
| 20260902134536 | 58 | 240 | 1.7 | 4.3 | 0.00 | 0.00 | 0.00 | 62 | 1007.9 |
| 20260902133038 | 57 | 239 | 3.5 | 6.1 | 0.00 | 0.00 | 0.00 | 63 | 1007.8 |
| 20260902131542 | 57 | 200 | 5.2 | 7.8 | 0.00 | 0.00 | 0.00 | 62 | 1007.8 |
| 20260902130049 | 56 | 217 | 3.5 | 8.7 | 0.00 | 0.00 | 0.00 | 65 | 1007.6 |
| 20260902124535 | 57 | 224 | 4.3 | 7.0 | 0.00 | 0.00 | 0.00 | 62 | 1007.6 |
| 20260902123035 | 55 | 305 | 2.6 | 7.0 | 0.00 | 0.00 | 0.00 | 66 | 1007.1 |
| 20260902121539 | 56 | 325 | 3.5 | 7.0 | 0.00 | 0.00 | 0.00 | 65 | 1007.3 |
| 20260902120034 | 56 | 304 | 5.2 | 7.8 | 0.00 | 0.00 | 0.00 | 66 | 1007.5 |
| 20260902114534 | 54 | 295 | 5.2 | 8.7 | 0.00 | 0.00 | 0.00 | 71 | 1007.8 |
| 20260902113035 | 55 | 280 | 7.0 | 11.3 | 0.00 | 0.00 | 0.00 | 69 | 1007.9 |
| 20260902111534 | 56 | 257 | 8.7 | 13.9 | 0.00 | 0.00 | 0.00 | 67 | 1008.0 |
| 20260902110042 | 56 | 238 | 8.7 | 13.9 | 0.00 | 0.00 | 0.00 | 67 | 1008.1 |
| 20260902104539 | 53 | 207 | 8.7 | 11.3 | 0.00 | 0.00 | 0.00 | 69 | 1008.0 |
| 20260902103038 | 54 | 205 | 6.1 | 8.7 | 0.00 | 0.00 | 0.00 | 65 | 1007.8 |
| 20260902101536 | 55 | 175 | 4.3 | 7.0 | 0.00 | 0.00 | 0.00 | 61 | 1008.0 |
| 20260902100035 | 56 | 156 | 3.5 | 6.1 | 0.00 | 0.00 | 0.00 | 61 | 1008.2 |
| 20260902094535 | 55 | 121 | 4.3 | 7.0 | 0.00 | 0.00 | 0.00 | 62 | 1008.2 |
| 20260902093040 | 58 | 130 | 0.0 | 4.3 | 0.00 | 0.00 | 0.00 | 56 | 1007.8 |